Location: Hall+in+Tirol
(47.2830°N, 11.5170°E)
Time: 13:39:30
(UTC+02:00)

Gurwin Techsat 1B - Visible Passes

Search period start: 02 September 2014 00:00
Search period end: 12 September 2014 00:00
Orbit: 812 x 815 km, 98.5° (Epoch: 01 September)

Date Brightness Start Highest point End Pass type
(mag) Time Alt. Az. Time Alt. Az. Time Alt. Az.
02 Sep 9.6 03:42:13 10° NNE 03:47:16 42° E 03:49:34 28° SSE visible
02 Sep 9.6 05:22:30 10° N 05:27:06 31° WNW 05:30:47 14° WSW visible
03 Sep 10.2 03:19:55 10° NE 03:24:28 28° E 03:26:33 22° SE visible
03 Sep 9.0 04:59:34 10° N 05:04:37 45° WNW 05:07:46 22° SW visible
04 Sep 10.7 02:57:58 10° NE 03:01:34 18° E 03:03:32 15° ESE visible
04 Sep 8.6 04:36:46 10° N 04:42:04 69° WNW 04:44:45 29° SSW visible
05 Sep 11.2 02:36:56 10° ENE 02:38:35 11° E 02:40:15 10° ESE visible
05 Sep 8.6 04:14:05 10° NNE 04:19:26 79° ESE 04:21:44 35° S visible
05 Sep 10.2 05:55:17 10° NNW 05:58:47 18° WNW 06:02:17 10° W visible
06 Sep 9.2 03:51:32 10° NNE 03:56:44 51° E 03:58:43 34° SSE visible
06 Sep 9.8 05:32:04 10° N 05:36:24 26° WNW 05:39:56 14° WSW visible
07 Sep 9.9 03:29:09 10° NNE 03:33:57 33° E 03:35:42 27° SE visible
07 Sep 9.2 05:09:04 10° N 05:13:57 38° WNW 05:16:55 21° WSW visible
08 Sep 10.5 03:07:00 10° NE 03:11:05 22° E 03:12:41 19° ESE visible
08 Sep 8.7 04:46:13 10° N 04:51:26 58° WNW 04:53:54 30° SW visible
09 Sep 11.0 02:45:24 10° NE 02:48:09 14° E 02:49:39 13° ESE visible
09 Sep 8.5 04:23:29 10° NNE 04:28:50 87° WNW 04:30:52 40° SSW visible
09 Sep 10.4 06:05:03 10° NNW 06:08:03 15° NW 06:11:02 10° W visible
10 Sep 8.9 04:00:52 10° NNE 04:06:10 62° ESE 04:07:51 41° SSE visible
10 Sep 9.9 05:41:41 10° N 05:45:42 22° WNW 05:49:04 13° WSW visible
11 Sep 9.6 03:38:24 10° NNE 03:43:25 40° E 03:44:50 34° SE visible
11 Sep 9.5 05:18:36 10° N 05:23:17 32° WNW 05:26:02 20° WSW visible
